Home > Weather > Sidon > Past weeks

Flag for Lebanon Past Weather in Sidon, Lebanon — Yesterday and Last 2 Weeks

Now
77 °F

Passing clouds.


Feels Like: 79 °F
Forecast: 78 / 90 °F
Wind: 3 mph from South

Location: Beirut Airport

Current Time: Jun 25, 2016 at 4:39:12 AM

Latest Report: Jun 25, 2016 at 4:00 AM


Visibility: 4 mi

Pressure: 29.71 "Hg

Humidity: 79%

Dew Point: 70 °F

Location of SidonLocation

Past Weather in Sidon — Graph

°F

Sidon Temperature Yesterday

Maximum temperature yesterday: 84 °F (at 12:00 PM)
Minimum temperature yesterday: 77 °F (at 3:00 AM)
Average temperature yesterday: 81 °F

High & Low Weather Summary for the Past Weeks

 TemperatureHumidityPressure
High93 °F (Jun 14, 2:00 PM)94% (Jun 20, 3:00 AM)30.04 "Hg (Jun 20, 3:00 AM)
Low70 °F (Jun 12, 6:00 AM)20% (Jun 14, 4:00 PM)29.71 "Hg (Jun 15, 5:00 AM)
Average79 °F70%29.84 "Hg
* Reported Jun 10 2:00 AM — Jun 25 2:00 AM, Sidon, Weather by CustomWeather, © 2016

Note: Actual official high and low records may vary slightly from our data, if they occured in-between our weather recording intervals... More about our weather records

Advertising

Sidon Weather History for the Previous 24 Hours

Scroll right to see more
 ConditionsComfort  
Time TempWeatherWind HumidityBarometerVisibility
2:00 AM
Sat, Jun 25
79 °FPassing clouds.5 mph89%29.74 "Hg4 mi
1:00 AM79 °FPassing clouds.5 mph89%29.74 "Hg4 mi
12:00 AM79 °FPassing clouds.8 mph89%29.74 "Hg4 mi
11:00 PM
Fri, Jun 24
79 °FPassing clouds.7 mph89%29.74 "Hg5 mi
10:00 PM81 °FPassing clouds.9 mph84%29.74 "Hg5 mi
9:00 PM81 °FPassing clouds.10 mph84%29.74 "Hg5 mi
8:00 PM81 °FPassing clouds.12 mph84%29.71 "Hg5 mi
7:00 PM82 °FPassing clouds.9 mph79%29.74 "Hg4 mi
6:00 PM82 °FPassing clouds.10 mph79%29.71 "Hg4 mi
5:00 PM82 °FFog.12 mph79%29.74 "Hg3 mi
4:00 PM84 °FFog.12 mph74%29.74 "Hg3 mi
3:00 PM84 °FPassing clouds.14 mph70%29.74 "Hg5 mi
2:00 PM84 °FSunny.10 mph74%29.74 "Hg4 mi
1:00 PM84 °FSunny.15 mph70%29.77 "Hg4 mi
12:00 PM84 °FSunny.15 mph74%29.74 "Hg4 mi
11:00 AM82 °FSunny.16 mph79%29.74 "Hg4 mi
10:00 AM82 °FSunny.16 mph79%29.77 "Hg4 mi
9:00 AM81 °FPassing clouds.15 mph79%29.77 "Hg4 mi
8:00 AM81 °FPassing clouds.9 mph74%29.74 "Hg4 mi
7:00 AM77 °FPassing clouds.No wind83%29.71 "Hg4 mi
6:00 AM77 °FPassing clouds.No wind79%29.71 "Hg4 mi
5:00 AM77 °FPassing clouds.2 mph79%29.74 "Hg4 mi
4:00 AM77 °FFog.5 mph89%29.74 "Hg3 mi
Weather by CustomWeather, © 2016

See weather overviewHow to use our weather pages